Location: El Atico
(3.0014°N, 75.4378°W)
Time: 12:16:49
(UTC+00:00)

Cosmos 1953 Rocket - Pass Details

Date: 09 December 2025
Orbit: 598 x 627 km, 82.5° (Epoch: 25 January)

Event Time Altitude Azimuth Distance (km) Brightness Sun altitude
Rises 23:20:20 0° 11° (NNE) 2,898 6.7 -7.1°
Reaches altitude 10° 23:22:44 10° 21° (NNE) 1,994 5.8 -7.7°
Maximum altitude 23:26:44 34° 86° (E) 1,028 4.2 -8.6°
Drops below altitude 10° 23:30:46 10° 151° (SSE) 1,995 6.1 -9.5°
Sets 23:33:08 0° 160° (SSE) 2,899 7.0 -10.1°
